Flag for Micronesia Weather past 2 weeks in Colonia, Yap, Micronesia

83 °F

Passing clouds.

Feels Like: 91 °F
Forecast: 79 / 87 °F
Wind: 3 mph from North

Location: Yap Island

Current Time: Oct 4, 2015 at 10:48:57 PM

Latest Report: Oct 4, 2015 at 9:50 PM

Visibility: 12 mi

Pressure: 29.84 "Hg

Humidity: 83%

Dew point: 77 °F

Location of ColoniaLocation

Historic Weather in Colonia — Graph


Colonia temperature yesterday

Maximum temperature yesterday: 85 °F (at 4:50 PM)
Minimum temperature yesterday: 76 °F (at 5:50 AM)
Average temperature yesterday: 81 °F

Past Weeks' High & Low Weather Summary

High87 °F (Sep 26, 11:50 AM)99% (Oct 4, 4:59 AM)29.97 "Hg (Oct 4, 4:59 AM)
Low36 °F (Oct 4, 4:59 AM)70% (Sep 24, 2:50 PM)29.66 "Hg (Sep 21, 12:50 AM)
Average82 °F83%29.80 "Hg
* Reported Sep 19 9:56 PM — Oct 4 9:50 PM, Colonia, Weather by CustomWeather, © 2015

Note: Actual official high and low records may vary slightly from our data, if they occured in-between our weather recording intervals... More about our weather records


Colonia weather history for previous 24 hours

Time TempWeatherWind HumidityBarometerVisibility
9:50 PM
Sun, Oct 4
83 °FPassing clouds.3 mph83%29.84 "Hg12 mi
8:53 PM83 °FPassing clouds.3 mph83%29.83 "Hg12 mi
6:50 PM83 °FScattered clouds.3 mph83%29.80 "Hg12 mi
5:52 PM84 °FScattered clouds.5 mph82%29.79 "Hg12 mi
4:57 PM85 °FBroken clouds.8 mph78%29.78 "Hg12 mi
3:58 PM85 °FBroken clouds.5 mph77%29.78 "Hg12 mi
2:54 PM87 °FBroken clouds.5 mph75%29.78 "Hg12 mi
12:51 PM85 °FBroken clouds.7 mph72%29.83 "Hg12 mi
11:55 AM81 °FBroken clouds.3 mph87%29.86 "Hg12 mi
10:50 AM85 °FBroken clouds.3 mph78%29.88 "Hg12 mi
9:50 AM83 °FBroken clouds.2 mph81%29.89 "Hg12 mi
8:51 AM84 °FBroken clouds.No wind79%29.88 "Hg12 mi
7:52 AM83 °FBroken clouds.No wind81%29.88 "Hg12 mi
6:55 AM79 °FPassing clouds.5 mph87%29.86 "Hg12 mi
5:50 AM77 °FPassing clouds.No wind95%29.85 "Hg12 mi
4:59 AM36 °FPassing clouds.No wind99%29.85 "Hg12 mi
3:50 AM77 °FPassing clouds.No wind95%29.85 "Hg12 mi
2:53 AM80 °FPassing clouds.No wind91%29.85 "Hg12 mi
1:53 AM80 °FPassing clouds.No wind90%29.85 "Hg12 mi
12:50 AM78 °FPartly cloudy.No wind92%29.87 "Hg12 mi
11:57 PM
Sat, Oct 3
79 °FPartly cloudy.No wind92%29.88 "Hg12 mi
10:50 PM79 °FPartly cloudy.No wind92%29.89 "Hg12 mi
Weather by CustomWeather, © 2015

See weather overviewHow to use our weather pages